Time,TemperatureF,DewpointF,PressureIn,WindDirection,WindDirectionDegrees,WindSpeedMPH,WindSpeedGustMPH,Humidity,HourlyPrecipIn,Conditions,Clouds,dailyrainin,SolarRadiationWatts/m^2,SoftwareType,DateUTC
2013-07-04 00:00:00,77.7,65.4,29.83,SE,138,0.0,0.0,66,0.00,,,0.00,0,Wunderground v.1.15,2013-07-04 05:00:00,
2013-07-04 00:05:00,77.5,65.7,29.83,SE,138,0.0,0.0,67,0.00,,,0.00,0,Wunderground v.1.15,2013-07-04 05:05:00,
2013-07-04 00:10:00,77.3,65.9,29.83,SE,138,0.0,0.0,68,0.00,,,0.00,0,Wunderground v.1.15,2013-07-04 05:10:00,
2013-07-04 00:15:00,77.0,65.6,29.84,SE,138,0.0,0.0,68,0.00,,,0.00,0,Wunderground v.1.15,2013-07-04 05:15:00,
2013-07-04 00:20:00,76.7,64.9,29.84,SE,138,0.0,0.0,67,0.00,,,0.00,0,Wunderground v.1.15,2013-07-04 05:20:00,
2013-07-04 00:25:00,76.5,64.7,29.84,SE,138,0.0,0.0,67,0.00,,,0.00,0,Wunderground v.1.15,2013-07-04 05:25:00,
2013-07-04 00:30:00,76.2,64.9,29.84,SE,138,0.0,0.0,68,0.00,,,0.00,0,Wunderground v.1.15,2013-07-04 05:30:00,
2013-07-04 00:35:00,75.9,64.6,29.84,SE,138,0.0,0.0,68,0.00,,,0.00,0,Wunderground v.1.15,2013-07-04 05:35:00,
2013-07-04 00:40:00,75.6,64.7,29.84,SE,138,0.0,0.0,69,0.00,,,0.00,0,Wunderground v.1.15,2013-07-04 05:40:00,
2013-07-04 00:45:00,75.4,64.5,29.85,SE,138,0.0,0.0,69,0.00,,,0.00,0,Wunderground v.1.15,2013-07-04 05:45:00,
2013-07-04 00:50:00,75.0,64.5,29.85,SE,138,1.0,3.0,70,0.00,,,0.00,0,Wunderground v.1.15,2013-07-04 05:50:00,
2013-07-04 00:55:00,74.8,64.4,29.85,SE,138,1.0,3.0,70,0.00,,,0.00,0,Wunderground v.1.15,2013-07-04 05:55:00,
2013-07-04 01:00:00,74.7,64.3,29.85,SE,138,1.0,1.0,70,0.00,,,0.00,0,Wunderground v.1.15,2013-07-04 06:00:00,
2013-07-04 01:05:00,74.7,64.3,29.85,SE,138,1.0,1.0,70,0.00,,,0.00,0,Wunderground v.1.15,2013-07-04 06:05:00,
2013-07-04 01:10:00,74.7,64.3,29.85,SE,138,2.0,2.0,70,0.00,,,0.00,0,Wunderground v.1.15,2013-07-04 06:10:00,
2013-07-04 01:15:00,74.7,64.3,29.85,SE,138,1.0,2.0,70,0.00,,,0.00,0,Wunderground v.1.15,2013-07-04 06:15:00,
2013-07-04 01:20:00,74.7,64.3,29.85,SE,138,0.0,0.0,70,0.00,,,0.00,0,Wunderground v.1.15,2013-07-04 06:20:00,
2013-07-04 01:25:00,74.7,64.3,29.85,SE,138,0.0,0.0,70,0.00,,,0.00,0,Wunderground v.1.15,2013-07-04 06:25:00,
2013-07-04 01:30:00,74.6,64.2,29.85,SE,138,0.0,0.0,70,0.00,,,0.00,0,Wunderground v.1.15,2013-07-04 06:30:00,
2013-07-04 01:35:00,74.5,64.1,29.85,SE,138,1.0,3.0,70,0.00,,,0.00,0,Wunderground v.1.15,2013-07-04 06:35:00,
2013-07-04 01:40:00,74.4,64.4,29.85,SE,138,2.0,2.0,71,0.00,,,0.00,0,Wunderground v.1.15,2013-07-04 06:40:00,
2013-07-04 01:50:00,74.2,64.2,29.86,SE,138,0.0,0.0,71,0.00,,,0.00,0,Wunderground v.1.15,2013-07-04 06:50:00,
2013-07-04 01:55:00,74.2,64.2,29.86,SE,138,0.0,0.0,71,0.00,,,0.00,0,Wunderground v.1.15,2013-07-04 06:55:00,
2013-07-04 02:00:00,74.1,64.1,29.86,SE,138,0.0,0.0,71,0.00,,,0.00,0,Wunderground v.1.15,2013-07-04 07:00:00,
2013-07-04 02:05:00,73.9,64.3,29.86,SE,138,1.0,1.0,72,0.00,,,0.00,0,Wunderground v.1.15,2013-07-04 07:05:00,
2013-07-04 02:10:00,73.8,64.2,29.86,SE,138,1.0,1.0,72,0.00,,,0.00,0,Wunderground v.1.15,2013-07-04 07:10:00,
2013-07-04 02:15:00,73.6,64.4,29.86,SE,138,0.0,1.0,73,0.00,,,0.00,0,Wunderground v.1.15,2013-07-04 07:15:00,
2013-07-04 02:20:00,73.5,64.3,29.86,SE,138,0.0,0.0,73,0.00,,,0.00,0,Wunderground v.1.15,2013-07-04 07:20:00,
2013-07-04 02:25:00,73.4,64.6,29.86,SE,138,1.0,1.0,74,0.00,,,0.00,0,Wunderground v.1.15,2013-07-04 07:25:00,
2013-07-04 02:30:00,73.4,65.0,29.86,SE,138,1.0,1.0,75,0.00,,,0.00,0,Wunderground v.1.15,2013-07-04 07:30:00,
2013-07-04 02:35:00,73.3,64.9,29.86,SE,138,2.0,4.0,75,0.00,,,0.00,0,Wunderground v.1.15,2013-07-04 07:35:00,
2013-07-04 02:40:00,73.2,64.8,29.86,SE,138,1.0,1.0,75,0.00,,,0.00,0,Wunderground v.1.15,2013-07-04 07:40:00,
2013-07-04 02:45:00,73.2,65.2,29.87,SE,138,0.0,1.0,76,0.00,,,0.00,0,Wunderground v.1.15,2013-07-04 07:45:00,
2013-07-04 02:50:00,73.1,65.1,29.87,SE,138,0.0,0.0,76,0.00,,,0.00,0,Wunderground v.1.15,2013-07-04 07:50:00,
2013-07-04 02:55:00,73.0,65.0,29.87,SE,138,0.0,0.0,76,0.00,,,0.00,0,Wunderground v.1.15,2013-07-04 07:55:00,
2013-07-04 03:00:00,72.9,64.9,29.86,SE,138,0.0,0.0,76,0.00,,,0.00,0,Wunderground v.1.15,2013-07-04 08:00:00,
2013-07-04 03:05:00,72.8,64.8,29.86,SE,138,0.0,0.0,76,0.00,,,0.00,0,Wunderground v.1.15,2013-07-04 08:05:00,
2013-07-04 03:10:00,72.6,65.0,29.86,SE,138,0.0,0.0,77,0.00,,,0.00,0,Wunderground v.1.15,2013-07-04 08:10:00,
2013-07-04 03:15:00,72.4,64.8,29.86,SE,138,0.0,0.0,77,0.00,,,0.00,0,Wunderground v.1.15,2013-07-04 08:15:00,
2013-07-04 03:20:00,72.1,64.5,29.86,SE,138,0.0,0.0,77,0.00,,,0.00,0,Wunderground v.1.15,2013-07-04 08:20:00,
2013-07-04 03:30:00,71.7,64.8,29.86,SE,138,0.0,0.0,79,0.00,,,0.00,0,Wunderground v.1.15,2013-07-04 08:30:00,
2013-07-04 03:35:00,71.4,64.9,29.86,SE,138,0.0,0.0,80,0.00,,,0.00,0,Wunderground v.1.15,2013-07-04 08:35:00,
2013-07-04 03:40:00,71.3,65.2,29.86,SE,138,0.0,0.0,81,0.00,,,0.00,0,Wunderground v.1.15,2013-07-04 08:40:00,
2013-07-04 03:45:00,71.0,64.9,29.86,SE,138,0.0,0.0,81,0.00,,,0.00,0,Wunderground v.1.15,2013-07-04 08:45:00,
2013-07-04 03:50:00,70.8,65.0,29.86,SE,138,0.0,0.0,82,0.00,,,0.00,0,Wunderground v.1.15,2013-07-04 08:50:00,
2013-07-04 03:55:00,70.6,64.8,29.86,SE,138,0.0,0.0,82,0.00,,,0.00,0,Wunderground v.1.15,2013-07-04 08:55:00,
2013-07-04 04:05:00,70.3,64.5,29.85,SE,138,0.0,0.0,82,0.00,,,0.00,0,Wunderground v.1.15,2013-07-04 09:05:00,
2013-07-04 04:10:00,70.1,64.7,29.85,SE,138,0.0,0.0,83,0.00,,,0.00,0,Wunderground v.1.15,2013-07-04 09:10:00,
2013-07-04 04:15:00,70.0,64.6,29.85,SE,138,0.0,0.0,83,0.00,,,0.00,0,Wunderground v.1.15,2013-07-04 09:15:00,
2013-07-04 04:20:00,69.9,64.8,29.85,SE,138,0.0,0.0,84,0.00,,,0.00,0,Wunderground v.1.15,2013-07-04 09:20:00,
2013-07-04 04:25:00,69.7,65.0,29.85,SE,138,0.0,0.0,85,0.00,,,0.00,0,Wunderground v.1.15,2013-07-04 09:25:00,
2013-07-04 04:35:00,69.4,64.7,29.86,SE,138,0.0,0.0,85,0.00,,,0.00,0,Wunderground v.1.15,2013-07-04 09:35:00,
2013-07-04 04:40:00,69.3,64.9,29.86,SE,138,0.0,0.0,86,0.00,,,0.00,0,Wunderground v.1.15,2013-07-04 09:40:00,
2013-07-04 04:45:00,69.1,64.7,29.86,SE,138,0.0,0.0,86,0.00,,,0.00,0,Wunderground v.1.15,2013-07-04 09:45:00,
2013-07-04 04:50:00,69.0,64.6,29.86,SE,138,0.0,0.0,86,0.00,,,0.00,0,Wunderground v.1.15,2013-07-04 09:50:00,
2013-07-04 04:55:00,68.9,64.9,29.86,SE,138,0.0,0.0,87,0.00,,,0.00,0,Wunderground v.1.15,2013-07-04 09:55:00,
2013-07-04 05:00:00,68.8,64.8,29.86,SE,138,0.0,0.0,87,0.00,,,0.00,0,Wunderground v.1.15,2013-07-04 10:00:00,
2013-07-04 05:05:00,68.6,64.6,29.86,SE,138,0.0,0.0,87,0.00,,,0.00,0,Wunderground v.1.15,2013-07-04 10:05:00,
2013-07-04 05:15:00,68.5,64.8,29.86,SE,138,0.0,0.0,88,0.00,,,0.00,0,Wunderground v.1.15,2013-07-04 10:15:00,
2013-07-04 05:25:00,68.3,64.9,29.86,SE,138,0.0,0.0,89,0.00,,,0.00,0,Wunderground v.1.15,2013-07-04 10:25:00,
2013-07-04 05:30:00,68.2,64.8,29.86,SE,138,0.0,0.0,89,0.00,,,0.00,0,Wunderground v.1.15,2013-07-04 10:30:00,
2013-07-04 05:35:00,68.1,64.7,29.86,SE,138,0.0,0.0,89,0.00,,,0.00,0,Wunderground v.1.15,2013-07-04 10:35:00,
2013-07-04 05:40:00,68.0,64.6,29.86,SE,138,0.0,0.0,89,0.00,,,0.00,0,Wunderground v.1.15,2013-07-04 10:40:00,
2013-07-04 05:45:00,67.9,64.5,29.85,SE,138,0.0,0.0,89,0.00,,,0.00,0,Wunderground v.1.15,2013-07-04 10:45:00,
2013-07-04 05:50:00,67.9,64.9,29.85,SE,138,0.0,0.0,90,0.00,,,0.00,0,Wunderground v.1.15,2013-07-04 10:50:00,
2013-07-04 06:00:00,67.7,64.7,29.85,SE,138,0.0,0.0,90,0.00,,,0.00,0,Wunderground v.1.15,2013-07-04 11:00:00,
2013-07-04 06:05:00,67.6,64.9,29.85,SE,137,0.0,0.0,91,0.00,,,0.00,0,Wunderground v.1.15,2013-07-04 11:05:00,
2013-07-04 06:15:00,67.4,64.7,29.86,SE,138,0.0,0.0,91,0.00,,,0.00,0,Wunderground v.1.15,2013-07-04 11:15:00,
2013-07-04 06:20:00,67.4,64.7,29.86,SE,138,0.0,0.0,91,0.00,,,0.00,0,Wunderground v.1.15,2013-07-04 11:20:00,
2013-07-04 06:25:00,67.3,64.6,29.86,SE,138,0.0,0.0,91,0.00,,,0.00,0,Wunderground v.1.15,2013-07-04 11:25:00,
2013-07-04 06:35:00,67.3,64.9,29.86,SE,138,0.0,0.0,92,0.00,,,0.00,0,Wunderground v.1.15,2013-07-04 11:35:00,
2013-07-04 06:40:00,67.3,64.9,29.86,SE,138,0.0,0.0,92,0.00,,,0.00,0,Wunderground v.1.15,2013-07-04 11:40:00,
2013-07-04 06:45:00,67.2,64.8,29.87,SE,138,0.0,0.0,92,0.00,,,0.00,7,Wunderground v.1.15,2013-07-04 11:45:00,
2013-07-04 06:50:00,67.2,64.8,29.87,SE,138,0.0,0.0,92,0.00,,,0.00,9,Wunderground v.1.15,2013-07-04 11:50:00,
2013-07-04 06:55:00,67.2,65.1,29.87,SE,137,0.0,0.0,93,0.00,,,0.00,14,Wunderground v.1.15,2013-07-04 11:55:00,
2013-07-04 07:00:00,67.1,65.0,29.87,SE,138,0.0,0.0,93,0.00,,,0.00,18,Wunderground v.1.15,2013-07-04 12:00:00,
2013-07-04 07:05:00,67.1,65.0,29.87,SE,138,0.0,0.0,93,0.00,,,0.00,21,Wunderground v.1.15,2013-07-04 12:05:00,
2013-07-04 07:15:00,67.1,65.0,29.88,SE,138,0.0,0.0,93,0.00,,,0.00,28,Wunderground v.1.15,2013-07-04 12:15:00,
2013-07-04 07:20:00,67.2,65.1,29.88,SE,138,0.0,0.0,93,0.00,,,0.00,33,Wunderground v.1.15,2013-07-04 12:20:00,
2013-07-04 07:25:00,67.3,65.2,29.88,SE,138,0.0,0.0,93,0.00,,,0.00,37,Wunderground v.1.15,2013-07-04 12:25:00,
2013-07-04 07:35:00,67.5,65.7,29.88,SE,139,0.0,0.0,94,0.00,,,0.00,33,Wunderground v.1.15,2013-07-04 12:35:00,
2013-07-04 07:40:00,67.7,65.9,29.88,SE,139,0.0,0.0,94,0.00,,,0.00,51,Wunderground v.1.15,2013-07-04 12:40:00,
2013-07-04 07:45:00,68.0,66.2,29.88,SE,138,0.0,0.0,94,0.00,,,0.00,60,Wunderground v.1.15,2013-07-04 12:45:00,
2013-07-04 07:50:00,68.3,66.5,29.88,SSE,164,0.0,0.0,94,0.00,,,0.00,77,Wunderground v.1.15,2013-07-04 12:50:00,
2013-07-04 08:00:00,69.1,67.6,29.88,SSE,164,0.0,0.0,95,0.00,,,0.00,158,Wunderground v.1.15,2013-07-04 13:00:00,
2013-07-04 08:05:00,69.6,68.1,29.88,SSE,165,0.0,0.0,95,0.00,,,0.00,116,Wunderground v.1.15,2013-07-04 13:05:00,
2013-07-04 08:10:00,70.0,68.5,29.88,SSE,164,0.0,0.0,95,0.00,,,0.00,206,Wunderground v.1.15,2013-07-04 13:10:00,
2013-07-04 08:15:00,70.4,68.9,29.89,SSE,163,0.0,0.0,95,0.00,,,0.00,221,Wunderground v.1.15,2013-07-04 13:15:00,
2013-07-04 08:20:00,70.9,69.7,29.89,SSE,164,0.0,0.0,96,0.00,,,0.00,243,Wunderground v.1.15,2013-07-04 13:20:00,
2013-07-04 08:25:00,71.3,69.8,29.89,SSE,163,0.0,0.0,95,0.00,,,0.00,267,Wunderground v.1.15,2013-07-04 13:25:00,
2013-07-04 08:30:00,71.8,70.6,29.89,South,175,0.0,0.0,96,0.00,,,0.00,283,Wunderground v.1.15,2013-07-04 13:30:00,
2013-07-04 08:35:00,72.2,70.7,29.89,South,175,0.0,0.0,95,0.00,,,0.00,299,Wunderground v.1.15,2013-07-04 13:35:00,
2013-07-04 08:40:00,72.6,71.1,29.89,South,175,0.0,0.0,95,0.00,,,0.00,320,Wunderground v.1.15,2013-07-04 13:40:00,
2013-07-04 08:45:00,72.8,71.3,29.89,South,184,0.0,0.0,95,0.00,,,0.00,339,Wunderground v.1.15,2013-07-04 13:45:00,
2013-07-04 08:50:00,73.3,71.8,29.89,South,184,0.0,0.0,95,0.00,,,0.00,353,Wunderground v.1.15,2013-07-04 13:50:00,
2013-07-04 08:55:00,73.7,72.2,29.89,South,184,0.0,0.0,95,0.00,,,0.00,376,Wunderground v.1.15,2013-07-04 13:55:00,
2013-07-04 09:05:00,74.4,72.2,29.89,South,183,0.0,0.0,93,0.00,,,0.00,367,Wunderground v.1.15,2013-07-04 14:05:00,
2013-07-04 09:10:00,74.9,72.4,29.89,South,182,0.0,0.0,92,0.00,,,0.00,431,Wunderground v.1.15,2013-07-04 14:10:00,
2013-07-04 09:15:00,75.5,72.7,29.89,South,183,0.0,0.0,91,0.00,,,0.00,438,Wunderground v.1.15,2013-07-04 14:15:00,
2013-07-04 09:20:00,75.9,72.4,29.89,South,180,1.0,5.0,89,0.00,,,0.00,464,Wunderground v.1.15,2013-07-04 14:20:00,
2013-07-04 09:25:00,76.5,72.3,29.89,South,176,2.0,5.0,87,0.00,,,0.00,494,Wunderground v.1.15,2013-07-04 14:25:00,
2013-07-04 09:30:00,77.1,72.2,29.89,South,176,2.0,2.0,85,0.00,,,0.00,489,Wunderground v.1.15,2013-07-04 14:30:00,
2013-07-04 09:35:00,77.6,72.0,29.89,South,176,2.0,2.0,83,0.00,,,0.00,527,Wunderground v.1.15,2013-07-04 14:35:00,
2013-07-04 09:40:00,78.3,72.3,29.89,South,175,2.0,2.0,82,0.00,,,0.00,471,Wunderground v.1.15,2013-07-04 14:40:00,
2013-07-04 09:45:00,78.7,72.0,29.89,South,176,2.0,2.0,80,0.00,,,0.00,480,Wunderground v.1.15,2013-07-04 14:45:00,
2013-07-04 09:50:00,79.1,71.6,29.89,South,176,2.0,4.0,78,0.00,,,0.00,601,Wunderground v.1.15,2013-07-04 14:50:00,
2013-07-04 10:00:00,80.2,71.2,29.89,South,175,2.0,2.0,74,0.00,,,0.00,577,Wunderground v.1.15,2013-07-04 15:00:00,
2013-07-04 10:05:00,80.7,72.0,29.89,South,175,0.0,2.0,75,0.00,,,0.00,559,Wunderground v.1.15,2013-07-04 15:05:00,
2013-07-04 10:10:00,81.1,70.8,29.89,South,176,1.0,1.0,71,0.00,,,0.00,519,Wunderground v.1.15,2013-07-04 15:10:00,
2013-07-04 10:15:00,81.4,71.1,29.89,South,175,1.0,3.0,71,0.00,,,0.00,499,Wunderground v.1.15,2013-07-04 15:15:00,
2013-07-04 10:25:00,82.2,70.1,29.89,South,175,1.0,4.0,67,0.00,,,0.00,708,Wunderground v.1.15,2013-07-04 15:25:00,
2013-07-04 10:30:00,82.9,71.3,29.89,South,175,2.0,2.0,68,0.00,,,0.00,629,Wunderground v.1.15,2013-07-04 15:30:00,
2013-07-04 10:35:00,83.6,71.0,29.89,South,175,2.0,2.0,66,0.00,,,0.00,570,Wunderground v.1.15,2013-07-04 15:35:00,
2013-07-04 10:40:00,84.2,70.7,29.89,South,175,2.0,2.0,64,0.00,,,0.00,684,Wunderground v.1.15,2013-07-04 15:40:00,
2013-07-04 10:45:00,84.8,72.2,29.89,South,176,1.0,2.0,66,0.00,,,0.00,696,Wunderground v.1.15,2013-07-04 15:45:00,
2013-07-04 10:50:00,85.4,71.8,29.89,South,171,0.0,0.0,64,0.00,,,0.00,670,Wunderground v.1.15,2013-07-04 15:50:00,
2013-07-04 10:55:00,85.7,70.7,29.89,South,171,0.0,0.0,61,0.00,,,0.00,703,Wunderground v.1.15,2013-07-04 15:55:00,
2013-07-04 11:05:00,86.2,70.2,29.89,South,171,0.0,0.0,59,0.00,,,0.00,772,Wunderground v.1.15,2013-07-04 16:05:00,
2013-07-04 11:15:00,86.9,69.3,29.88,South,171,1.0,4.0,56,0.00,,,0.00,773,Wunderground v.1.15,2013-07-04 16:15:00,
2013-07-04 11:20:00,87.1,69.5,29.88,South,171,2.0,2.0,56,0.00,,,0.00,798,Wunderground v.1.15,2013-07-04 16:20:00,
2013-07-04 11:25:00,87.5,69.3,29.88,South,171,1.0,2.0,55,0.00,,,0.00,812,Wunderground v.1.15,2013-07-04 16:25:00,
2013-07-04 11:30:00,88.1,69.9,29.88,South,171,2.0,5.0,55,0.00,,,0.00,819,Wunderground v.1.15,2013-07-04 16:30:00,
2013-07-04 11:35:00,88.5,70.3,29.88,South,171,3.0,5.0,55,0.00,,,0.00,824,Wunderground v.1.15,2013-07-04 16:35:00,
2013-07-04 11:40:00,88.5,69.2,29.88,South,171,1.0,1.0,53,0.00,,,0.00,844,Wunderground v.1.15,2013-07-04 16:40:00,
2013-07-04 11:45:00,89.0,69.6,29.87,South,172,2.0,6.0,53,0.00,,,0.00,846,Wunderground v.1.15,2013-07-04 16:45:00,
2013-07-04 11:50:00,89.3,68.8,29.87,South,172,3.0,7.0,51,0.00,,,0.00,856,Wunderground v.1.15,2013-07-04 16:50:00,
2013-07-04 12:00:00,89.6,67.3,29.88,South,173,3.0,3.0,48,0.00,,,0.00,868,Wunderground v.1.15,2013-07-04 17:00:00,
2013-07-04 12:05:00,89.9,68.8,29.88,South,173,2.0,3.0,50,0.00,,,0.00,875,Wunderground v.1.15,2013-07-04 17:05:00,
2013-07-04 12:15:00,90.4,68.6,29.87,South,175,1.0,2.0,49,0.00,,,0.00,891,Wunderground v.1.15,2013-07-04 17:15:00,
2013-07-04 12:20:00,90.9,67.9,29.87,South,173,2.0,2.0,47,0.00,,,0.00,900,Wunderground v.1.15,2013-07-04 17:20:00,
2013-07-04 12:25:00,91.1,67.4,29.87,South,175,2.0,3.0,46,0.00,,,0.00,905,Wunderground v.1.15,2013-07-04 17:25:00,
2013-07-04 12:35:00,90.4,66.2,29.87,South,171,2.0,2.0,45,0.00,,,0.00,930,Wunderground v.1.15,2013-07-04 17:35:00,
2013-07-04 12:40:00,90.0,67.7,29.87,South,171,1.0,1.0,48,0.00,,,0.00,947,Wunderground v.1.15,2013-07-04 17:40:00,
2013-07-04 12:45:00,90.4,69.2,29.86,South,171,0.0,1.0,50,0.00,,,0.00,967,Wunderground v.1.15,2013-07-04 17:45:00,
2013-07-04 12:50:00,90.8,67.2,29.86,South,171,0.0,0.0,46,0.00,,,0.00,986,Wunderground v.1.15,2013-07-04 17:50:00,
2013-07-04 12:55:00,91.2,69.4,29.86,South,170,1.0,1.0,49,0.00,,,0.00,1007,Wunderground v.1.15,2013-07-04 17:55:00,
2013-07-04 13:00:00,91.3,67.6,29.85,South,169,1.0,1.0,46,0.00,,,0.00,954,Wunderground v.1.15,2013-07-04 18:00:00,
2013-07-04 13:05:00,91.7,69.2,29.85,South,173,1.0,1.0,48,0.00,,,0.00,650,Wunderground v.1.15,2013-07-04 18:05:00,
2013-07-04 13:10:00,92.0,68.3,29.85,South,183,3.0,4.0,46,0.00,,,0.00,650,Wunderground v.1.15,2013-07-04 18:10:00,
2013-07-04 13:15:00,92.4,67.3,29.85,South,188,4.0,5.0,44,0.00,,,0.00,733,Wunderground v.1.15,2013-07-04 18:15:00,
2013-07-04 13:20:00,92.3,68.5,29.85,South,187,4.0,5.0,46,0.00,,,0.00,1097,Wunderground v.1.15,2013-07-04 18:20:00,
2013-07-04 13:25:00,92.5,66.7,29.85,South,190,3.0,5.0,43,0.00,,,0.00,1030,Wunderground v.1.15,2013-07-04 18:25:00,
2013-07-04 13:30:00,92.5,67.4,29.85,South,189,3.0,3.0,44,0.00,,,0.00,796,Wunderground v.1.15,2013-07-04 18:30:00,
2013-07-04 13:35:00,92.3,66.6,29.85,South,190,2.0,3.0,43,0.00,,,0.00,912,Wunderground v.1.15,2013-07-04 18:35:00,
2013-07-04 13:45:00,92.7,65.6,29.85,SSW,194,0.0,5.0,41,0.00,,,0.00,789,Wunderground v.1.15,2013-07-04 18:45:00,
2013-07-04 13:50:00,92.5,69.3,29.85,SSW,194,1.0,1.0,47,0.00,,,0.00,969,Wunderground v.1.15,2013-07-04 18:50:00,
2013-07-04 13:55:00,92.6,67.5,29.85,SSW,193,1.0,1.0,44,0.00,,,0.00,464,Wunderground v.1.15,2013-07-04 18:55:00,
2013-07-04 14:00:00,92.4,65.3,29.84,SSW,192,1.0,1.0,41,0.00,,,0.00,1027,Wunderground v.1.15,2013-07-04 19:00:00,
2013-07-04 14:05:00,92.1,65.7,29.84,SSW,192,1.0,4.0,42,0.00,,,0.00,988,Wunderground v.1.15,2013-07-04 19:05:00,
2013-07-04 14:10:00,92.7,65.6,29.84,SSW,192,1.0,1.0,41,0.00,,,0.00,958,Wunderground v.1.15,2013-07-04 19:10:00,
2013-07-04 14:15:00,92.8,67.7,29.83,SSW,192,1.0,1.0,44,0.00,,,0.00,990,Wunderground v.1.15,2013-07-04 19:15:00,
2013-07-04 14:20:00,92.9,66.4,29.83,SSW,192,1.0,1.0,42,0.00,,,0.00,974,Wunderground v.1.15,2013-07-04 19:20:00,
2013-07-04 14:30:00,93.1,67.3,29.82,South,188,2.0,3.0,43,0.00,,,0.00,962,Wunderground v.1.15,2013-07-04 19:30:00,
2013-07-04 14:35:00,93.1,64.5,29.82,South,188,1.0,3.0,39,0.00,,,0.00,935,Wunderground v.1.15,2013-07-04 19:35:00,
2013-07-04 14:40:00,93.9,66.6,29.82,South,190,2.0,2.0,41,0.00,,,0.00,979,Wunderground v.1.15,2013-07-04 19:40:00,
2013-07-04 14:50:00,93.7,64.3,29.82,South,184,1.0,1.0,38,0.00,,,0.00,1000,Wunderground v.1.15,2013-07-04 19:50:00,
2013-07-04 14:55:00,93.8,67.2,29.82,South,184,1.0,4.0,42,0.00,,,0.00,221,Wunderground v.1.15,2013-07-04 19:55:00,
2013-07-04 15:05:00,92.7,64.8,29.81,South,184,3.0,3.0,40,0.00,,,0.00,821,Wunderground v.1.15,2013-07-04 20:05:00,
2013-07-04 15:10:00,93.2,66.0,29.81,South,188,2.0,2.0,41,0.00,,,0.00,768,Wunderground v.1.15,2013-07-04 20:10:00,
2013-07-04 15:15:00,93.5,64.8,29.81,South,188,1.0,2.0,39,0.00,,,0.00,591,Wunderground v.1.15,2013-07-04 20:15:00,
2013-07-04 15:20:00,93.8,67.2,29.81,SSW,199,2.0,3.0,42,0.00,,,0.00,696,Wunderground v.1.15,2013-07-04 20:20:00,
2013-07-04 15:25:00,94.0,66.0,29.81,SSW,198,4.0,4.0,40,0.00,,,0.00,508,Wunderground v.1.15,2013-07-04 20:25:00,
2013-07-04 15:30:00,94.3,65.5,29.81,SSW,198,4.0,4.0,39,0.00,,,0.00,1092,Wunderground v.1.15,2013-07-04 20:30:00,
2013-07-04 15:35:00,94.6,65.8,29.81,SSW,198,2.0,4.0,39,0.00,,,0.00,782,Wunderground v.1.15,2013-07-04 20:35:00,
2013-07-04 15:40:00,94.6,66.5,29.81,SSW,198,1.0,1.0,40,0.00,,,0.00,860,Wunderground v.1.15,2013-07-04 20:40:00,
2013-07-04 15:45:00,94.2,63.2,29.80,SSW,195,0.0,1.0,36,0.00,,,0.00,867,Wunderground v.1.15,2013-07-04 20:45:00,
2013-07-04 15:55:00,93.9,65.2,29.80,South,190,1.0,2.0,39,0.00,,,0.00,881,Wunderground v.1.15,2013-07-04 20:55:00,
2013-07-04 16:00:00,93.8,63.6,29.79,South,188,1.0,1.0,37,0.00,,,0.00,851,Wunderground v.1.15,2013-07-04 21:00:00,
2013-07-04 16:05:00,94.4,66.4,29.79,South,188,1.0,5.0,40,0.00,,,0.00,830,Wunderground v.1.15,2013-07-04 21:05:00,
2013-07-04 16:10:00,94.8,65.2,29.79,South,179,2.0,10.0,38,0.00,,,0.00,840,Wunderground v.1.15,2013-07-04 21:10:00,
2013-07-04 16:15:00,94.4,64.1,29.79,SE,142,5.0,10.0,37,0.00,,,0.00,789,Wunderground v.1.15,2013-07-04 21:15:00,
2013-07-04 16:20:00,94.1,64.6,29.79,SE,143,4.0,4.0,38,0.00,,,0.00,752,Wunderground v.1.15,2013-07-04 21:20:00,
2013-07-04 16:25:00,94.4,65.6,29.79,SE,144,1.0,4.0,39,0.00,,,0.00,751,Wunderground v.1.15,2013-07-04 21:25:00,
2013-07-04 16:30:00,94.2,61.5,29.79,SE,144,1.0,1.0,34,0.00,,,0.00,763,Wunderground v.1.15,2013-07-04 21:30:00,
2013-07-04 16:35:00,94.2,63.2,29.79,SE,143,0.0,1.0,36,0.00,,,0.00,766,Wunderground v.1.15,2013-07-04 21:35:00,
2013-07-04 16:40:00,94.9,63.8,29.79,SSE,151,1.0,2.0,36,0.00,,,0.00,705,Wunderground v.1.15,2013-07-04 21:40:00,
2013-07-04 16:45:00,95.3,63.3,29.78,SSE,153,1.0,2.0,35,0.00,,,0.00,687,Wunderground v.1.15,2013-07-04 21:45:00,
2013-07-04 16:50:00,95.4,61.7,29.78,SSE,153,0.0,0.0,33,0.00,,,0.00,650,Wunderground v.1.15,2013-07-04 21:50:00,
2013-07-04 16:55:00,95.6,65.2,29.78,SSE,161,0.0,0.0,37,0.00,,,0.00,626,Wunderground v.1.15,2013-07-04 21:55:00,
2013-07-04 17:00:00,95.6,62.8,29.78,SSE,150,0.0,2.0,34,0.00,,,0.00,631,Wunderground v.1.15,2013-07-04 22:00:00,
2013-07-04 17:05:00,95.2,64.0,29.78,SE,146,1.0,2.0,36,0.00,,,0.00,606,Wunderground v.1.15,2013-07-04 22:05:00,
2013-07-04 17:10:00,95.1,61.5,29.78,SE,146,1.0,1.0,33,0.00,,,0.00,601,Wunderground v.1.15,2013-07-04 22:10:00,
2013-07-04 17:15:00,95.2,59.8,29.78,SSE,149,1.0,1.0,31,0.00,,,0.00,589,Wunderground v.1.15,2013-07-04 22:15:00,
2013-07-04 17:25:00,96.0,64.7,29.78,SSE,149,0.0,0.0,36,0.00,,,0.00,570,Wunderground v.1.15,2013-07-04 22:25:00,
2013-07-04 17:30:00,96.4,65.1,29.77,South,175,2.0,10.0,36,0.00,,,0.00,559,Wunderground v.1.15,2013-07-04 22:30:00,
2013-07-04 17:35:00,96.5,62.7,29.77,South,187,5.0,11.0,33,0.00,,,0.00,548,Wunderground v.1.15,2013-07-04 22:35:00,
2013-07-04 17:40:00,96.3,63.4,29.77,South,186,6.0,6.0,34,0.00,,,0.00,552,Wunderground v.1.15,2013-07-04 22:40:00,
2013-07-04 17:45:00,95.9,63.0,29.77,South,170,5.0,6.0,34,0.00,,,0.00,541,Wunderground v.1.15,2013-07-04 22:45:00,
2013-07-04 17:55:00,95.7,62.8,29.77,South,169,1.0,4.0,34,0.00,,,0.00,496,Wunderground v.1.15,2013-07-04 22:55:00,
2013-07-04 18:00:00,95.5,63.5,29.76,SSE,163,1.0,1.0,35,0.00,,,0.00,480,Wunderground v.1.15,2013-07-04 23:00:00,
2013-07-04 18:05:00,95.3,61.6,29.76,SE,145,2.0,2.0,33,0.00,,,0.00,434,Wunderground v.1.15,2013-07-04 23:05:00,
2013-07-04 18:10:00,95.0,61.4,29.76,SE,146,2.0,2.0,33,0.00,,,0.00,399,Wunderground v.1.15,2013-07-04 23:10:00,
2013-07-04 18:15:00,94.9,63.0,29.76,SE,146,1.0,2.0,35,0.00,,,0.00,381,Wunderground v.1.15,2013-07-04 23:15:00,
2013-07-04 18:20:00,94.8,62.1,29.76,SE,146,0.0,0.0,34,0.00,,,0.00,360,Wunderground v.1.15,2013-07-04 23:20:00,
2013-07-04 18:30:00,94.7,62.8,29.76,SE,146,0.0,1.0,35,0.00,,,0.00,330,Wunderground v.1.15,2013-07-04 23:30:00,
2013-07-04 18:35:00,94.5,63.4,29.76,SE,146,0.0,1.0,36,0.00,,,0.00,315,Wunderground v.1.15,2013-07-04 23:35:00,
2013-07-04 18:40:00,94.5,63.4,29.76,SE,145,0.0,0.0,36,0.00,,,0.00,292,Wunderground v.1.15,2013-07-04 23:40:00,
2013-07-04 18:45:00,94.3,60.8,29.76,SE,145,0.0,0.0,33,0.00,,,0.00,281,Wunderground v.1.15,2013-07-04 23:45:00,
2013-07-04 18:50:00,94.2,59.8,29.76,SE,145,0.0,1.0,32,0.00,,,0.00,265,Wunderground v.1.15,2013-07-04 23:50:00,
2013-07-04 18:55:00,94.1,62.3,29.76,SE,146,0.0,4.0,35,0.00,,,0.00,246,Wunderground v.1.15,2013-07-04 23:55:00,
2013-07-04 19:00:00,93.8,61.2,29.76,SSE,163,1.0,1.0,34,0.00,,,0.00,234,Wunderground v.1.15,2013-07-05 00:00:00,
2013-07-04 19:05:00,93.5,60.1,29.76,SSE,161,2.0,2.0,33,0.00,,,0.00,216,Wunderground v.1.15,2013-07-05 00:05:00,
2013-07-04 19:10:00,93.2,60.7,29.76,SSE,161,1.0,1.0,34,0.00,,,0.00,200,Wunderground v.1.15,2013-07-05 00:10:00,
2013-07-04 19:15:00,92.9,60.4,29.76,SSE,161,0.0,1.0,34,0.00,,,0.00,186,Wunderground v.1.15,2013-07-05 00:15:00,
2013-07-04 19:20:00,92.8,61.1,29.76,SSE,161,0.0,0.0,35,0.00,,,0.00,171,Wunderground v.1.15,2013-07-05 00:20:00,
2013-07-04 19:25:00,92.6,58.4,29.76,SSE,161,0.0,0.0,32,0.00,,,0.00,155,Wunderground v.1.15,2013-07-05 00:25:00,
2013-07-04 19:35:00,92.2,58.1,29.76,SSE,161,0.0,4.0,32,0.00,,,0.00,105,Wunderground v.1.15,2013-07-05 00:35:00,
2013-07-04 19:40:00,91.9,56.9,29.76,SSE,161,0.0,0.0,31,0.00,,,0.00,54,Wunderground v.1.15,2013-07-05 00:40:00,
2013-07-04 19:45:00,91.8,58.6,29.76,SSE,161,0.0,0.0,33,0.00,,,0.00,44,Wunderground v.1.15,2013-07-05 00:45:00,
2013-07-04 19:50:00,91.5,59.2,29.76,SSE,161,0.0,0.0,34,0.00,,,0.00,39,Wunderground v.1.15,2013-07-05 00:50:00,
2013-07-04 19:55:00,91.2,58.9,29.76,SSE,161,0.0,0.0,34,0.00,,,0.00,35,Wunderground v.1.15,2013-07-05 00:55:00,
2013-07-04 20:00:00,91.0,59.5,29.77,SSE,161,0.0,0.0,35,0.00,,,0.00,32,Wunderground v.1.15,2013-07-05 01:00:00,
2013-07-04 20:05:00,90.6,59.2,29.77,SSE,161,0.0,0.0,35,0.00,,,0.00,28,Wunderground v.1.15,2013-07-05 01:05:00,
2013-07-04 20:10:00,90.4,59.0,29.77,SSE,161,0.0,0.0,35,0.00,,,0.00,25,Wunderground v.1.15,2013-07-05 01:10:00,
2013-07-04 20:15:00,90.0,58.7,29.77,SSE,161,0.0,0.0,35,0.00,,,0.00,19,Wunderground v.1.15,2013-07-05 01:15:00,
2013-07-04 20:20:00,89.7,58.4,29.77,SSE,161,0.0,0.0,35,0.00,,,0.00,12,Wunderground v.1.15,2013-07-05 01:20:00,
2013-07-04 20:25:00,89.3,58.8,29.77,SSE,161,0.0,0.0,36,0.00,,,0.00,7,Wunderground v.1.15,2013-07-05 01:25:00,
2013-07-04 20:30:00,89.0,58.6,29.77,SSE,161,0.0,0.0,36,0.00,,,0.00,5,Wunderground v.1.15,2013-07-05 01:30:00,
2013-07-04 20:35:00,88.7,58.3,29.77,SSE,161,0.0,0.0,36,0.00,,,0.00,0,Wunderground v.1.15,2013-07-05 01:35:00,
2013-07-04 20:40:00,88.3,58.0,29.77,SSE,161,0.0,0.0,36,0.00,,,0.00,0,Wunderground v.1.15,2013-07-05 01:40:00,
2013-07-04 20:45:00,87.9,58.4,29.78,SSE,161,0.0,0.0,37,0.00,,,0.00,0,Wunderground v.1.15,2013-07-05 01:45:00,
2013-07-04 20:50:00,87.6,58.1,29.78,SSE,161,0.0,0.0,37,0.00,,,0.00,0,Wunderground v.1.15,2013-07-05 01:50:00,
2013-07-04 20:55:00,87.2,59.2,29.78,SSE,161,0.0,3.0,39,0.00,,,0.00,0,Wunderground v.1.15,2013-07-05 01:55:00,
2013-07-04 21:00:00,86.8,58.9,29.78,SSE,161,1.0,6.0,39,0.00,,,0.00,0,Wunderground v.1.15,2013-07-05 02:00:00,
2013-07-04 21:10:00,86.6,61.4,29.78,SSE,161,4.0,4.0,43,0.00,,,0.00,0,Wunderground v.1.15,2013-07-05 02:10:00,
2013-07-04 21:15:00,86.5,63.3,29.78,SSE,161,3.0,4.0,46,0.00,,,0.00,0,Wunderground v.1.15,2013-07-05 02:15:00,
2013-07-04 21:20:00,86.2,63.6,29.78,SSE,161,2.0,2.0,47,0.00,,,0.00,0,Wunderground v.1.15,2013-07-05 02:20:00,
2013-07-04 21:25:00,86.0,65.2,29.78,SSE,161,2.0,2.0,50,0.00,,,0.00,0,Wunderground v.1.15,2013-07-05 02:25:00,
2013-07-04 21:30:00,85.8,65.0,29.79,SSE,161,1.0,1.0,50,0.00,,,0.00,0,Wunderground v.1.15,2013-07-05 02:30:00,
2013-07-04 21:35:00,85.6,65.4,29.79,SSE,161,1.0,2.0,51,0.00,,,0.00,0,Wunderground v.1.15,2013-07-05 02:35:00,
2013-07-04 21:40:00,85.4,65.8,29.79,SSE,155,2.0,3.0,52,0.00,,,0.00,0,Wunderground v.1.15,2013-07-05 02:40:00,
2013-07-04 21:45:00,85.1,66.0,29.80,SSE,155,2.0,5.0,53,0.00,,,0.00,0,Wunderground v.1.15,2013-07-05 02:45:00,
2013-07-04 21:50:00,85.0,66.0,29.80,SE,144,3.0,3.0,53,0.00,,,0.00,0,Wunderground v.1.15,2013-07-05 02:50:00,
2013-07-04 22:00:00,85.0,64.3,29.80,SSE,157,6.0,7.0,50,0.00,,,0.00,0,Wunderground v.1.15,2013-07-05 03:00:00,
2013-07-04 22:05:00,85.0,64.3,29.80,SSE,151,6.0,11.0,50,0.00,,,0.00,0,Wunderground v.1.15,2013-07-05 03:05:00,
2013-07-04 22:15:00,84.9,64.2,29.81,SSE,151,6.0,8.0,50,0.00,,,0.00,0,Wunderground v.1.15,2013-07-05 03:15:00,
2013-07-04 22:20:00,84.7,63.4,29.81,SSE,159,5.0,5.0,49,0.00,,,0.00,0,Wunderground v.1.15,2013-07-05 03:20:00,
2013-07-04 22:25:00,84.6,63.3,29.81,SSE,151,5.0,5.0,49,0.00,,,0.00,0,Wunderground v.1.15,2013-07-05 03:25:00,
2013-07-04 22:30:00,84.4,63.2,29.81,SE,137,4.0,4.0,49,0.00,,,0.00,0,Wunderground v.1.15,2013-07-05 03:30:00,
2013-07-04 22:35:00,84.2,63.5,29.81,East,99,4.0,5.0,50,0.00,,,0.00,0,Wunderground v.1.15,2013-07-05 03:35:00,
2013-07-04 22:45:00,83.8,62.6,29.82,SE,136,6.0,7.0,49,0.00,,,0.00,0,Wunderground v.1.15,2013-07-05 03:45:00,
2013-07-04 22:50:00,83.6,63.0,29.82,SSE,163,5.0,5.0,50,0.00,,,0.00,0,Wunderground v.1.15,2013-07-05 03:50:00,
2013-07-04 23:00:00,83.1,62.5,29.82,SSE,148,4.0,4.0,50,0.00,,,0.00,0,Wunderground v.1.15,2013-07-05 04:00:00,
2013-07-04 23:05:00,82.9,62.9,29.82,SE,144,4.0,4.0,51,0.00,,,0.00,0,Wunderground v.1.15,2013-07-05 04:05:00,
2013-07-04 23:10:00,82.7,62.7,29.82,SE,146,3.0,3.0,51,0.00,,,0.00,0,Wunderground v.1.15,2013-07-05 04:10:00,
2013-07-04 23:15:00,82.5,62.5,29.83,SSE,153,2.0,6.0,51,0.00,,,0.00,0,Wunderground v.1.15,2013-07-05 04:15:00,
2013-07-04 23:20:00,82.3,62.4,29.83,SSE,147,2.0,2.0,51,0.00,,,0.00,0,Wunderground v.1.15,2013-07-05 04:20:00,
2013-07-04 23:25:00,82.1,62.2,29.83,SSE,148,1.0,2.0,51,0.00,,,0.00,0,Wunderground v.1.15,2013-07-05 04:25:00,
2013-07-04 23:30:00,81.9,62.0,29.83,SE,146,1.0,1.0,51,0.00,,,0.00,0,Wunderground v.1.15,2013-07-05 04:30:00,
2013-07-04 23:35:00,81.7,62.4,29.83,SE,144,0.0,1.0,52,0.00,,,0.00,0,Wunderground v.1.15,2013-07-05 04:35:00,
2013-07-04 23:40:00,81.5,62.7,29.83,SE,144,0.0,0.0,53,0.00,,,0.00,0,Wunderground v.1.15,2013-07-05 04:40:00,
2013-07-04 23:45:00,81.3,63.1,29.84,SE,145,1.0,1.0,54,0.00,,,0.00,0,Wunderground v.1.15,2013-07-05 04:45:00,
2013-07-04 23:50:00,81.1,63.4,29.84,SE,146,1.0,1.0,55,0.00,,,0.00,0,Wunderground v.1.15,2013-07-05 04:50:00,
2013-07-04 23:55:00,80.9,63.2,29.84,SE,144,1.0,3.0,55,0.00,,,0.00,0,Wunderground v.1.15,2013-07-05 04:55:00,